Location: ?kun?ru
(16.3916°N, 80.8194°E)
Time: 00:56:37
(UTC+00:00)

CZ-2C R/B - Pass Details

Date: 19 May 2025
Orbit: 416 x 448 km, 97.8° (Epoch: 24 June)

Event Time Altitude Azimuth Distance (km) Brightness Sun altitude
Exits shadow 14:21:47 56° 148° (SSE) 516 2.3 -18.4°
Maximum altitude 14:22:22 77° 78° (ENE) 445 2.1 -18.5°
Drops below altitude 10° 14:25:39 10° 352° (N) 1,539 5.6 -19.2°
Sets 14:27:40 0° 351° (N) 2,415 6.7 -19.6°
